User: anonymous   Login
Location: Montr�al
(45.5000°N, 73.5830°W)
Time: 22:27:51
(UTC-04:00)
Language:

Cosmos 1470 Rocket - Orbit

View from above orbital plane
View from above orbital plane
View from above satellite
View from above satellite

Ground track
Ground track

The orbit data is extracted from the following two-line orbital elements,

1 14148U 83061B   15242.24097764  .00000214  00000-0  23286-4 0  9991
2 14148 082.5214 164.8232 0021182 342.0278 178.5522 14.83053181737469
Epoch (UTC): 30 August 2015 05:47:00
Eccentricity: 0.0021182
inclination: 82.5214°
perigee height: 605 km
apogee height: 634 km
right ascension of ascending node: 164.8232°
argument of perigee: 342.0278°
revolutions per day: 14.83053181
mean anomaly at epoch: 178.5522°
orbit number at epoch: 73746

The dashed part of the orbit path shows where the satellite is in the earth's shadow,  

DLR